Retour au catalogue

STARLINK-35007

ActifCommunicationsSSO
NORAD 65287·PAYLOAD·🇺🇸 United States

Lancé Aug 22, 2025 depuis Vandenberg Space Force Base

Loading…

Prochains Passages (prochaines 24 heures)

TLE

FraisSource: CelesTrak SupGP

Époque: Sep 14, 2026, 22:30 UTC

1 65287C 25184Q   26257.93798611  .00025803  00000+0  80214-3 0  2576
2 65287  97.2831 305.9949 0001033  89.5699 237.7055 15.33380225    14

Suivez STARLINK-35007 en temps réel avec AllMySat

Download on the App Store